Regional Weather Roundup
Issued by NWS

Home | Current Version | Previous Version | Text Only | Print | Product List | Glossary Off
Versions: 1 2 3 4 5 6 7 8 9 10 11 12 13 14 15 16 17 18 19 20 21 22 23 24 25 26 27 28 29 30 31 32 33 34 35 36 37 38 39 40 41 42 43 44 45 46 47 48 49 50

000
ASUS45 KSLC 210810
RWRUT

UTAH REGIONAL WEATHER ROUNDUP
NATIONAL WEATHER SERVICE SALT LAKE CITY UT
100 AM MST SUN DEC 21 2014

UTZ001>011-023>025-210900-

NORTHERN UTAH

CITY           SKY/WX    TMP DP  RH WIND       PRES   REMARKS
BRIGHAM CITY   CLOUDY    42  34  74 S12       30.01F
HILL AFB       MIX PCPN  40  34  79 S10       30.01F WCI  33
LOGAN          CLOUDY    40  35  83 S10       29.97F WCI  33
OGDEN          LGT RAIN  41  34  76 S10       30.00F
PROVO AIRPORT  CLOUDY    37  34  87 S5        30.06F WCI  34
SALT LAKE CITY CLOUDY    40  34  79 SE7       30.02F
VERNAL         CLOUDY    29  27  92 SE3       30.06F FOG
WENDOVER       CLOUDY    36  28  75 E5        30.03S WCI  32
HEBER CITY     CLOUDY    32  32 100 CALM      30.03S
WEST JORDAN    CLOUDY    39  36  87 S12       30.04F WCI  32

$$

UTZ012>022-026-027-210900-

SOUTHERN/CENTRAL UTAH

CITY           SKY/WX    TMP DP  RH WIND       PRES   REMARKS
BLANDING       CLEAR     30  30  97 CALM      30.18S
BRYCE CANYON   CLEAR     21  19  92 SW5       30.10F WCI  15
CEDAR CITY     CLEAR     31  25  78 S5        30.11S WCI  26
DELTA          MOCLDY    30  28  92 S9        30.07F WCI  22
MILFORD        PTCLDY    35  28  75 SW13      30.09F WCI  26
MOAB/CYNLANDS  CLOUDY    35  34  96 NE3       30.11S
PRICE          CLOUDY    30  27  88 CALM      30.09S FOG
ST GEORGE      PTSUNNY   39  30  70 CALM      30.17F
KANAB          CLEAR     28  28 100 CALM      30.18S

$$

REGIONAL REPORTS     COLORADO/ARIZONA

CITY           SKY/WX    TMP DP  RH WIND       PRES   REMARKS
CRAIG, CO      MOCLDY    20  18  92 CALM      30.04S
GRAND JUNCTION CLOUDY    33  31  92 CALM      30.12S
RIFLE          CLOUDY    30  29  96 CALM      30.11S FOG
MONTROSE       CLOUDY    31  28  89 CALM      30.13S
CORTEZ         MOCLDY    29  27  92 CALM      30.09F
PAGE, AZ       CLEAR     35  29  78 CALM      30.13F
GRAND CANYON   PTCLDY    24  22  91 CALM      30.15F
KINGMAN        MOCLDY    34  30  85 SE6       30.15F WCI  29
FLAGSTAFF      PTCLDY    27  22  81 SW6       30.15F WCI  20

$$

REGIONAL REPORTS    NEVADA/IDAHO/WYOMING

CITY           SKY/WX    TMP DP  RH WIND       PRES   REMARKS
LAS VEGAS, NV  PTCLDY    45  37  73 SW8       30.12F
ELY            LGT RAIN  34  32  92 NW5       30.16S WCI  30
ELKO           MIX PCPN  37  35  92 SW8       30.07F WCI  31
POCATELLO, ID  LGT RAIN  37  36  96 S12       29.90F WCI  29
BURLEY         LGT RAIN  39  35  86 S21G26    29.92F WCI  29
EVANSTON, WY   CLOUDY    30  29  96 SW17      29.96F WCI  18
ROCK SPRINGS   CLOUDY    30  25  81 SW14G23   29.92F WCI  19
KEMMERER       MOCLDY    30  28  93 W16       29.91F WCI  19

$$



USA.gov is the U.S. government's official web portal to all federal, state and local government web resources and services.